JES3107 SACO-SABE

Flight info

Callsign JES3107
Flight time 0h 57m
Altitude 37000
Route UTRAX1C UTRAX UW24 SNT
Aircraft A21N/M-SDE2E3FGHIRWXY/LB1

Departure

Time 2026-05-03 21:18
Airport Ingeniero Aeronáutico Ambrosio L.V. Taravella International Airport (SACO)

Arrival

Time 2026-05-03 22:15
Airport Aeroparque Jorge Newbery (SABE)
Time Latitude Longitude Altitude Speed Heading
2026-05-03 20:25 -31.31683 -64.21168 1613 ft 0 kts 301°
2026-05-03 21:10 -31.31683 -64.21167 1613 ft 0 kts 301°
2026-05-03 21:10 -31.31690 -64.21153 1613 ft 2 kts 301°
2026-05-03 21:10 -31.31698 -64.21138 1613 ft 2 kts 301°
2026-05-03 21:11 -31.31704 -64.21125 1613 ft 0 kts 301°
2026-05-03 21:11 -31.31708 -64.21114 1613 ft 2 kts 263°
2026-05-03 21:11 -31.31701 -64.21098 1613 ft 2 kts 206°
2026-05-03 21:11 -31.31692 -64.21096 1613 ft 1 kts 173°
2026-05-03 21:12 -31.31687 -64.21097 1613 ft 0 kts 180°
2026-05-03 21:14 -31.31690 -64.21096 1613 ft 2 kts 178°
2026-05-03 21:14 -31.31764 -64.21060 1613 ft 20 kts 147°
2026-05-03 21:15 -31.31919 -64.21024 1613 ft 26 kts 181°
2026-05-03 21:15 -31.32096 -64.21024 1613 ft 24 kts 178°
2026-05-03 21:15 -31.32264 -64.21019 1613 ft 23 kts 180°
2026-05-03 21:15 -31.32382 -64.21011 1613 ft 5 kts 158°
2026-05-03 21:16 -31.32415 -64.20988 1613 ft 5 kts 138°
2026-05-03 21:16 -31.32436 -64.20935 1613 ft 10 kts 93°
2026-05-03 21:16 -31.32392 -64.20840 1613 ft 16 kts 42°
2026-05-03 21:16 -31.32311 -64.20744 1613 ft 14 kts 46°
2026-05-03 21:17 -31.32300 -64.20731 1613 ft 0 kts 46°
2026-05-03 21:17 -31.32290 -64.20720 1613 ft 12 kts 45°
2026-05-03 21:18 -31.32002 -64.20407 1613 ft 98 kts 43°
2026-05-03 21:18 -31.31329 -64.19638 1633 ft 166 kts 44°
2026-05-03 21:18 -31.30441 -64.18614 2110 ft 192 kts 44°
2026-05-03 21:18 -31.29480 -64.17457 2939 ft 210 kts 49°
2026-05-03 21:19 -31.28701 -64.15881 3662 ft 237 kts 72°
2026-05-03 21:19 -31.28605 -64.13997 4748 ft 244 kts 96°
2026-05-03 21:19 -31.29258 -64.12029 4900 ft 275 kts 124°
2026-05-03 21:19 -31.30544 -64.10325 4960 ft 279 kts 130°
2026-05-03 21:20 -31.31629 -64.08464 4953 ft 272 kts 107°
2026-05-03 21:20 -31.31954 -64.06316 4974 ft 268 kts 89°
2026-05-03 21:20 -31.31943 -64.04090 4970 ft 267 kts 85°
2026-05-03 21:20 -31.31922 -64.01926 4960 ft 269 kts 94°
2026-05-03 21:21 -31.32543 -63.99855 4960 ft 276 kts 121°
2026-05-03 21:21 -31.33804 -63.98112 4971 ft 278 kts 132°
2026-05-03 21:21 -31.35197 -63.96515 4969 ft 279 kts 134°
2026-05-03 21:21 -31.36628 -63.94931 4968 ft 279 kts 134°
2026-05-03 21:22 -31.38050 -63.93366 4968 ft 279 kts 134°
2026-05-03 21:22 -31.39465 -63.91810 4968 ft 279 kts 134°
2026-05-03 21:22 -31.40890 -63.90242 4968 ft 279 kts 134°
2026-05-03 21:22 -31.42299 -63.88692 4968 ft 279 kts 134°
2026-05-03 21:23 -31.43726 -63.87120 4968 ft 279 kts 134°
2026-05-03 21:23 -31.45143 -63.85560 4969 ft 280 kts 134°
2026-05-03 21:23 -31.46584 -63.83961 5194 ft 285 kts 134°
2026-05-03 21:23 -31.48021 -63.82355 5955 ft 288 kts 134°
2026-05-03 21:24 -31.49467 -63.80734 6863 ft 289 kts 134°
2026-05-03 21:24 -31.50930 -63.79092 7823 ft 285 kts 134°
2026-05-03 21:24 -31.52344 -63.77504 8626 ft 287 kts 135°
2026-05-03 21:24 -31.53814 -63.75848 9051 ft 302 kts 135°
2026-05-03 21:25 -31.55352 -63.74118 9696 ft 308 kts 135°
2026-05-03 21:25 -31.56913 -63.72362 10379 ft 312 kts 135°
2026-05-03 21:25 -31.58513 -63.70561 10742 ft 328 kts 136°
2026-05-03 21:25 -31.60219 -63.68642 11050 ft 345 kts 136°
2026-05-03 21:26 -31.61991 -63.66647 11347 ft 362 kts 136°
2026-05-03 21:26 -31.63881 -63.64519 11641 ft 378 kts 136°
2026-05-03 21:26 -31.65817 -63.62339 11949 ft 393 kts 136°
2026-05-03 21:26 -31.67816 -63.60084 12505 ft 400 kts 136°
2026-05-03 21:27 -31.69839 -63.57801 13181 ft 403 kts 136°
2026-05-03 21:27 -31.71879 -63.55496 13827 ft 408 kts 136°
2026-05-03 21:27 -31.73961 -63.53141 14466 ft 413 kts 137°
2026-05-03 21:27 -31.76019 -63.50810 15093 ft 417 kts 137°
2026-05-03 21:28 -31.78132 -63.48416 15727 ft 422 kts 137°
2026-05-03 21:28 -31.80304 -63.45952 16369 ft 426 kts 137°
2026-05-03 21:28 -31.82349 -63.43630 16964 ft 431 kts 137°
2026-05-03 21:28 -31.84520 -63.41164 17584 ft 435 kts 137°
2026-05-03 21:29 -31.86693 -63.38691 18184 ft 440 kts 136°
2026-05-03 21:29 -31.88841 -63.36054 18777 ft 445 kts 133°
2026-05-03 21:29 -31.90532 -63.33728 19255 ft 448 kts 129°
2026-05-03 21:29 -31.92104 -63.31418 19700 ft 452 kts 129°
2026-05-03 21:30 -31.94059 -63.28490 20248 ft 456 kts 128°
2026-05-03 21:30 -31.96036 -63.25522 20778 ft 460 kts 128°
2026-05-03 21:30 -31.98052 -63.22500 21299 ft 464 kts 129°
2026-05-03 21:30 -32.00048 -63.19517 21878 ft 466 kts 129°
2026-05-03 21:31 -32.02070 -63.16500 22483 ft 467 kts 129°
2026-05-03 21:31 -32.04075 -63.13509 22958 ft 470 kts 129°
2026-05-03 21:31 -32.06128 -63.10449 23408 ft 474 kts 129°
2026-05-03 21:31 -32.08192 -63.07371 23834 ft 479 kts 129°
2026-05-03 21:32 -32.10245 -63.04310 24228 ft 483 kts 129°
2026-05-03 21:32 -32.12343 -63.01194 24603 ft 488 kts 129°
2026-05-03 21:32 -32.14476 -62.98030 24973 ft 492 kts 129°
2026-05-03 21:32 -32.16612 -62.94854 25331 ft 497 kts 129°
2026-05-03 21:33 -32.18716 -62.91714 25667 ft 501 kts 128°
2026-05-03 21:33 -32.20896 -62.88453 25999 ft 505 kts 128°
2026-05-03 21:33 -32.23095 -62.85155 26326 ft 510 kts 128°
2026-05-03 21:33 -32.25294 -62.81849 26670 ft 513 kts 128°
2026-05-03 21:34 -32.27519 -62.78503 27092 ft 514 kts 128°
2026-05-03 21:34 -32.29722 -62.75185 27589 ft 513 kts 129°
2026-05-03 21:34 -32.31942 -62.71839 28049 ft 513 kts 129°
2026-05-03 21:34 -32.34146 -62.68516 28416 ft 514 kts 129°
2026-05-03 21:35 -32.36340 -62.65207 28833 ft 514 kts 129°
2026-05-03 21:35 -32.38538 -62.61887 29257 ft 513 kts 129°
2026-05-03 21:35 -32.40745 -62.58552 29649 ft 513 kts 129°
2026-05-03 21:35 -32.42944 -62.55225 30015 ft 513 kts 130°
2026-05-03 21:36 -32.45138 -62.51904 30370 ft 513 kts 130°
2026-05-03 21:36 -32.47332 -62.48580 30719 ft 513 kts 130°
2026-05-03 21:36 -32.49530 -62.45245 31060 ft 513 kts 130°
2026-05-03 21:36 -32.51711 -62.41933 31385 ft 513 kts 130°
2026-05-03 21:37 -32.53900 -62.38607 31708 ft 512 kts 130°
2026-05-03 21:37 -32.56099 -62.35263 32027 ft 512 kts 130°
2026-05-03 21:37 -32.58328 -62.31860 32319 ft 512 kts 130°
2026-05-03 21:37 -32.60568 -62.28429 32595 ft 512 kts 130°
2026-05-03 21:38 -32.62392 -62.25635 32817 ft 512 kts 130°
2026-05-03 21:38 -32.64468 -62.22461 33068 ft 512 kts 130°
2026-05-03 21:38 -32.66646 -62.19133 33327 ft 511 kts 130°
2026-05-03 21:38 -32.68857 -62.15699 33583 ft 512 kts 129°
2026-05-03 21:39 -32.70882 -62.12331 33822 ft 512 kts 128°
2026-05-03 21:39 -32.72941 -62.08820 34056 ft 512 kts 127°
2026-05-03 21:39 -32.74982 -62.05310 34284 ft 512 kts 127°
2026-05-03 21:39 -32.77018 -62.01805 34521 ft 512 kts 127°
2026-05-03 21:40 -32.79030 -61.98346 34756 ft 511 kts 127°
2026-05-03 21:40 -32.81059 -61.94857 34987 ft 511 kts 127°
2026-05-03 21:40 -32.83088 -61.91370 35208 ft 510 kts 127°
2026-05-03 21:40 -32.85111 -61.87893 35401 ft 511 kts 127°
2026-05-03 21:41 -32.87132 -61.84416 35565 ft 511 kts 127°
2026-05-03 21:41 -32.88648 -61.81807 35681 ft 512 kts 127°
2026-05-03 21:41 -32.90693 -61.78285 35839 ft 513 kts 127°
2026-05-03 21:41 -32.92714 -61.74800 35995 ft 513 kts 127°
2026-05-03 21:42 -32.94747 -61.71292 36150 ft 514 kts 127°
2026-05-03 21:42 -32.96796 -61.67753 36298 ft 514 kts 127°
2026-05-03 21:42 -32.98822 -61.64251 36483 ft 514 kts 127°
2026-05-03 21:42 -33.00843 -61.60754 36731 ft 512 kts 127°
2026-05-03 21:43 -33.02858 -61.57263 36978 ft 509 kts 127°
2026-05-03 21:43 -33.04889 -61.53741 37038 ft 507 kts 127°
2026-05-03 21:43 -33.08851 -61.46858 37049 ft 499 kts 127°
2026-05-03 21:44 -33.12774 -61.40059 37050 ft 492 kts 127°
2026-05-03 21:44 -33.16632 -61.33366 37047 ft 491 kts 126°
2026-05-03 21:45 -33.20484 -61.26611 37049 ft 491 kts 126°
2026-05-03 21:45 -33.24320 -61.19878 37049 ft 491 kts 126°
2026-05-03 21:46 -33.28197 -61.13074 37048 ft 495 kts 126°
2026-05-03 21:46 -33.32071 -61.06245 37048 ft 500 kts 126°
2026-05-03 21:47 -33.35963 -60.99354 37048 ft 505 kts 126°
2026-05-03 21:47 -33.39935 -60.92313 37049 ft 508 kts 126°
2026-05-03 21:48 -33.43861 -60.85331 37049 ft 509 kts 126°
2026-05-03 21:48 -33.47810 -60.78286 37049 ft 509 kts 126°
2026-05-03 21:49 -33.51757 -60.71230 37049 ft 509 kts 126°
2026-05-03 21:49 -33.55700 -60.64166 37049 ft 509 kts 126°
2026-05-03 21:50 -33.59644 -60.57088 37049 ft 509 kts 126°
2026-05-03 21:50 -33.63575 -60.50016 37049 ft 509 kts 126°
2026-05-03 21:51 -33.65545 -60.46468 36639 ft 512 kts 126°
2026-05-03 21:51 -33.67520 -60.42907 36063 ft 513 kts 126°
2026-05-03 21:51 -33.69491 -60.39350 35421 ft 514 kts 126°
2026-05-03 21:51 -33.71460 -60.35792 34766 ft 514 kts 126°
2026-05-03 21:52 -33.73473 -60.32144 34086 ft 515 kts 126°
2026-05-03 21:52 -33.75537 -60.28392 33390 ft 515 kts 125°
2026-05-03 21:52 -33.77513 -60.24800 32762 ft 514 kts 125°
2026-05-03 21:52 -33.79508 -60.21176 32140 ft 513 kts 125°
2026-05-03 21:53 -33.81495 -60.17566 31515 ft 512 kts 124°
2026-05-03 21:53 -33.83496 -60.13929 30874 ft 512 kts 124°
2026-05-03 21:53 -33.85488 -60.10331 30230 ft 511 kts 124°
2026-05-03 21:53 -33.87487 -60.06762 29561 ft 511 kts 124°
2026-05-03 21:54 -33.89499 -60.03178 28900 ft 510 kts 124°
2026-05-03 21:54 -33.91481 -59.99645 28263 ft 508 kts 124°
2026-05-03 21:54 -33.93449 -59.96127 27724 ft 504 kts 124°
2026-05-03 21:54 -33.95426 -59.92582 27343 ft 496 kts 123°
2026-05-03 21:55 -33.97376 -59.89081 26893 ft 491 kts 123°
2026-05-03 21:55 -33.99276 -59.85666 26445 ft 486 kts 123°
2026-05-03 21:55 -34.01176 -59.82250 25989 ft 481 kts 123°
2026-05-03 21:55 -34.03052 -59.78872 25537 ft 477 kts 123°
2026-05-03 21:56 -34.04933 -59.75481 25061 ft 473 kts 123°
2026-05-03 21:56 -34.06612 -59.72453 24627 ft 470 kts 123°
2026-05-03 21:56 -34.08369 -59.69281 24167 ft 466 kts 123°
2026-05-03 21:56 -34.10095 -59.66163 23732 ft 462 kts 123°
2026-05-03 21:57 -34.11911 -59.62896 23276 ft 458 kts 123°
2026-05-03 21:57 -34.13692 -59.59699 22829 ft 454 kts 123°
2026-05-03 21:57 -34.15426 -59.56572 22445 ft 448 kts 123°
2026-05-03 21:57 -34.17100 -59.53457 22198 ft 438 kts 119°
2026-05-03 21:58 -34.18560 -59.50202 21604 ft 438 kts 115°
2026-05-03 21:58 -34.19923 -59.46909 20992 ft 439 kts 115°
2026-05-03 21:58 -34.21275 -59.43612 20376 ft 439 kts 115°
2026-05-03 21:58 -34.22635 -59.40326 19753 ft 438 kts 115°
2026-05-03 21:59 -34.23994 -59.37070 19129 ft 437 kts 115°
2026-05-03 21:59 -34.25377 -59.33779 18489 ft 436 kts 115°
2026-05-03 21:59 -34.26763 -59.30479 17844 ft 434 kts 115°
2026-05-03 21:59 -34.28133 -59.27222 17352 ft 428 kts 115°
2026-05-03 22:00 -34.29474 -59.24040 16888 ft 422 kts 115°
2026-05-03 22:00 -34.30804 -59.20885 16382 ft 417 kts 115°
2026-05-03 22:00 -34.32105 -59.17797 15869 ft 412 kts 115°
2026-05-03 22:00 -34.33401 -59.14721 15351 ft 408 kts 115°
2026-05-03 22:01 -34.34689 -59.11663 14881 ft 403 kts 115°
2026-05-03 22:01 -34.35957 -59.08651 14438 ft 397 kts 115°
2026-05-03 22:01 -34.37221 -59.05644 13996 ft 391 kts 116°
2026-05-03 22:01 -34.38454 -59.02710 13561 ft 386 kts 116°
2026-05-03 22:02 -34.39678 -58.99790 13101 ft 383 kts 116°
2026-05-03 22:02 -34.40879 -58.96923 12645 ft 379 kts 116°
2026-05-03 22:02 -34.42071 -58.94077 12221 ft 375 kts 116°
2026-05-03 22:02 -34.43238 -58.91291 12081 ft 361 kts 117°
2026-05-03 22:03 -34.44381 -58.88561 12076 ft 361 kts 117°
2026-05-03 22:03 -34.45539 -58.85793 12074 ft 361 kts 117°
2026-05-03 22:03 -34.46664 -58.83102 12074 ft 360 kts 117°
2026-05-03 22:03 -34.47778 -58.80435 12069 ft 344 kts 117°
2026-05-03 22:04 -34.48843 -58.77882 11787 ft 325 kts 117°
2026-05-03 22:04 -34.49849 -58.75470 11262 ft 314 kts 117°
2026-05-03 22:04 -34.50822 -58.73136 10777 ft 303 kts 117°
2026-05-03 22:04 -34.51761 -58.70883 10266 ft 295 kts 117°
2026-05-03 22:05 -34.52678 -58.68678 9671 ft 291 kts 117°
2026-05-03 22:05 -34.53592 -58.66482 9189 ft 283 kts 117°
2026-05-03 22:05 -34.54458 -58.64397 8859 ft 274 kts 117°
2026-05-03 22:05 -34.55309 -58.62347 8549 ft 269 kts 117°
2026-05-03 22:06 -34.56101 -58.60437 8269 ft 266 kts 117°
2026-05-03 22:06 -34.56934 -58.58427 7974 ft 264 kts 117°
2026-05-03 22:06 -34.57759 -58.56437 7683 ft 262 kts 117°
2026-05-03 22:06 -34.58585 -58.54442 7391 ft 261 kts 117°
2026-05-03 22:07 -34.59402 -58.52468 7102 ft 260 kts 117°
2026-05-03 22:07 -34.60210 -58.50512 6815 ft 259 kts 117°
2026-05-03 22:07 -34.61023 -58.48547 6529 ft 258 kts 116°
2026-05-03 22:07 -34.61840 -58.46569 6242 ft 257 kts 116°
2026-05-03 22:08 -34.62645 -58.44622 5960 ft 256 kts 116°
2026-05-03 22:08 -34.63443 -58.42690 5684 ft 255 kts 116°
2026-05-03 22:08 -34.64248 -58.40737 5401 ft 257 kts 116°
2026-05-03 22:08 -34.65044 -58.38807 5113 ft 252 kts 116°
2026-05-03 22:09 -34.65811 -58.36936 4839 ft 240 kts 116°
2026-05-03 22:09 -34.66548 -58.35150 4518 ft 233 kts 116°
2026-05-03 22:09 -34.67287 -58.33349 4002 ft 234 kts 115°
2026-05-03 22:10 -34.68745 -58.29784 3087 ft 231 kts 115°
2026-05-03 22:10 -34.69429 -58.28062 2973 ft 214 kts 108°
2026-05-03 22:10 -34.69578 -58.26307 2959 ft 210 kts 75°
2026-05-03 22:10 -34.68914 -58.24727 2967 ft 206 kts 42°
2026-05-03 22:11 -34.67687 -58.23838 2992 ft 203 kts 13°
2026-05-03 22:11 -34.66314 -58.23847 2965 ft 194 kts 341°
2026-05-03 22:11 -34.65241 -58.24710 2957 ft 180 kts 311°
2026-05-03 22:11 -34.64560 -58.25941 2995 ft 175 kts 302°
2026-05-03 22:12 -34.63940 -58.27156 2716 ft 162 kts 303°
2026-05-03 22:12 -34.63342 -58.28268 2425 ft 156 kts 304°
2026-05-03 22:12 -34.62723 -58.29382 2233 ft 157 kts 305°
2026-05-03 22:12 -34.62116 -58.30465 2026 ft 156 kts 305°
2026-05-03 22:13 -34.61501 -58.31561 1818 ft 155 kts 305°
2026-05-03 22:13 -34.60894 -58.32645 1613 ft 155 kts 305°
2026-05-03 22:13 -34.60287 -58.33730 1408 ft 154 kts 305°
2026-05-03 22:13 -34.59704 -58.34773 1189 ft 144 kts 306°
2026-05-03 22:14 -34.59132 -58.35794 1020 ft 144 kts 306°
2026-05-03 22:14 -34.58570 -58.36800 821 ft 144 kts 304°
2026-05-03 22:14 -34.58021 -58.37824 645 ft 145 kts 306°
2026-05-03 22:14 -34.57447 -58.38847 458 ft 146 kts 305°
2026-05-03 22:15 -34.56909 -58.39815 208 ft 142 kts 306°
2026-05-03 22:15 -34.56338 -58.40829 60 ft 144 kts 305°
2026-05-03 22:15 -34.55814 -58.41770 27 ft 114 kts 306°
2026-05-03 22:15 -34.55499 -58.42328 27 ft 41 kts 295°
2026-05-03 22:16 -34.55406 -58.42500 27 ft 10 kts 347°
2026-05-03 22:16 -34.55363 -58.42480 27 ft 0 kts 64°
2026-05-03 22:16 -34.55363 -58.42481 27 ft 0 kts 64°
2026-05-03 22:17 -34.55361 -58.42473 27 ft 1 kts 73°
2026-05-03 22:17 -34.55359 -58.42453 27 ft 3 kts 86°
2026-05-03 22:17 -34.55360 -58.42413 27 ft 5 kts 97°
2026-05-03 22:18 -34.55375 -58.42358 27 ft 7 kts 116°
2026-05-03 22:18 -34.55410 -58.42297 27 ft 9 kts 127°
2026-05-03 22:18 -34.55438 -58.42254 27 ft 0 kts 128°
2026-05-03 22:19 -34.55442 -58.42248 27 ft 2 kts 128°
2026-05-03 22:19 -34.55461 -58.42219 27 ft 6 kts 128°
2026-05-03 22:20 -34.55497 -58.42159 27 ft 12 kts 127°
2026-05-03 22:20 -34.55557 -58.42064 27 ft 19 kts 126°
2026-05-03 22:20 -34.55638 -58.41913 27 ft 20 kts 103°
2026-05-03 22:20 -34.55595 -58.41791 27 ft 13 kts 67°
2026-05-03 22:21 -34.55541 -58.41729 27 ft 1 kts 33°